TimeCST,TemperatureF,Dew PointF,Humidity,Sea Level PressureIn,VisibilityMPH,Wind Direction,Wind SpeedMPH,Gust SpeedMPH,PrecipitationIn,Events,Conditions,WindDirDegrees,DateUTC
12:00 AM,73,72,98,30.03,11,Calm,Calm,,,Rain,Light Rain Showers,,2013-01-07 06:00:00
3:00 AM,72,72,98,29.99,12,Calm,Calm,,,,Partly Cloudy,,2013-01-07 09:00:00
5:00 AM,71.6,71.6,100,29.98,0.9,WNW,4.6,-,N/A,,Mist,300,2013-01-07 11:00:00
6:00 AM,72,72,99,30.00,12,Calm,Calm,,,,Partly Cloudy,,2013-01-07 12:00:00
6:00 AM,73.4,71.6,94,29.98,6.2,Calm,Calm,-,N/A,,Mostly Cloudy,0,2013-01-07 12:00:00
7:00 AM,71.6,71.6,100,30.04,2.5,WNW,4.6,-,N/A,,Mostly Cloudy,290,2013-01-07 13:00:00
7:35 AM,71.6,71.6,100,30.04,0.6,WSW,3.5,-,N/A,Fog,Fog,250,2013-01-07 13:35:00
8:00 AM,73.4,73.4,100,30.04,1.2,NW,4.6,-,N/A,,Mostly Cloudy,310,2013-01-07 14:00:00
8:10 AM,73.4,73.4,100,30.04,4.3,NNW,4.6,-,N/A,,Mostly Cloudy,330,2013-01-07 14:10:00
9:00 AM,76,75,97,30.07,11,North,4.6,,,,,10,2013-01-07 15:00:00
9:00 AM,77.0,75.2,94,30.06,6.2,North,4.6,-,N/A,,Mostly Cloudy,10,2013-01-07 15:00:00
10:00 AM,78.8,77.0,94,30.04,6.2,NE,6.9,-,N/A,,Scattered Clouds,40,2013-01-07 16:00:00
11:00 AM,82.4,75.2,79,30.02,6.2,ENE,11.5,-,N/A,,Mostly Cloudy,60,2013-01-07 17:00:00
12:00 PM,83,75,71,30.01,12,ENE,12.7,,,,Partly Cloudy,60,2013-01-07 18:00:00
12:00 PM,82.4,75.2,79,30.01,6.2,ENE,12.7,-,N/A,,Mostly Cloudy,60,2013-01-07 18:00:00
1:00 PM,82.4,75.2,79,29.97,6.2,ENE,12.7,-,N/A,,Mostly Cloudy,60,2013-01-07 19:00:00
2:00 PM,80.6,75.2,84,29.95,6.2,ENE,10.4,-,N/A,,Mostly Cloudy,60,2013-01-07 20:00:00
3:00 PM,80,74,77,29.94,11,ESE,5.8,,,Rain,Light Rain Showers,110,2013-01-07 21:00:00
3:00 PM,80.6,73.4,79,29.93,6.2,ESE,5.8,-,N/A,,Mostly Cloudy,110,2013-01-07 21:00:00
4:00 PM,80.6,73.4,79,29.94,6.2,ENE,6.9,-,N/A,,Mostly Cloudy,60,2013-01-07 22:00:00
5:00 PM,80.6,75.2,84,29.94,6.2,ENE,9.2,-,N/A,,Mostly Cloudy,70,2013-01-07 23:00:00
6:00 PM,80,74,78,29.96,12,East,8.1,,,,Partly Cloudy,80,2013-01-08 00:00:00
6:00 PM,80.6,75.2,84,29.95,6.2,East,8.1,-,N/A,,Mostly Cloudy,80,2013-01-08 00:00:00